TimeCDT,TemperatureF,Dew PointF,Humidity,Sea Level PressureIn,VisibilityMPH,Wind Direction,Wind SpeedMPH,Gust SpeedMPH,PrecipitationIn,Events,Conditions,WindDirDegrees,DateUTC
12:58 AM,66.6,62.6,87,30.05,10.0,WSW,3.5,-,N/A,,Mostly Cloudy,240,2013-05-17 05:58:00
1:58 AM,65.7,62.6,90,30.02,10.0,SE,5.8,-,N/A,,Overcast,140,2013-05-17 06:58:00
2:58 AM,64.0,62.2,94,30.02,10.0,Calm,Calm,-,N/A,,Partly Cloudy,0,2013-05-17 07:58:00
3:58 AM,60.1,58.5,94,30.04,10.0,Calm,Calm,-,N/A,,Clear,0,2013-05-17 08:58:00
4:56 AM,60.8,59.0,94,30.04,10.0,East,5.8,-,N/A,,Partly Cloudy,100,2013-05-17 09:56:00
4:58 AM,60.8,59.0,94,30.04,10.0,East,5.8,-,N/A,,Partly Cloudy,90,2013-05-17 09:58:00
5:08 AM,60.8,60.8,100,30.05,3.0,East,3.5,-,N/A,,Mostly Cloudy,80,2013-05-17 10:08:00
5:13 AM,60.8,60.8,100,30.05,2.0,East,4.6,-,N/A,,Mostly Cloudy,80,2013-05-17 10:13:00
5:23 AM,60.8,60.8,100,30.05,5.0,ENE,3.5,-,N/A,,Overcast,60,2013-05-17 10:23:00
5:33 AM,60.8,60.8,100,30.05,9.0,NE,3.5,-,N/A,,Mostly Cloudy,40,2013-05-17 10:33:00
5:38 AM,60.8,60.8,100,30.06,10.0,NE,3.5,-,N/A,,Mostly Cloudy,40,2013-05-17 10:38:00
5:43 AM,62.6,60.8,94,30.06,10.0,NE,3.5,-,N/A,,Mostly Cloudy,40,2013-05-17 10:43:00
5:48 AM,62.6,60.8,94,30.06,10.0,NE,3.5,-,N/A,,Mostly Cloudy,50,2013-05-17 10:48:00
5:53 AM,62.6,60.8,94,30.06,9.0,ENE,4.6,-,N/A,,Mostly Cloudy,60,2013-05-17 10:53:00
5:58 AM,62.1,61.5,98,30.06,7.0,ENE,3.5,-,N/A,,Mostly Cloudy,60,2013-05-17 10:58:00
6:23 AM,64.4,62.6,94,30.07,7.0,East,2.3,-,N/A,,Overcast,80,2013-05-17 11:23:00
6:45 AM,64.4,64.4,100,30.08,8.0,ENE,1.2,-,N/A,,Overcast,60,2013-05-17 11:45:00
6:55 AM,64.4,64.4,100,30.08,10.0,Calm,Calm,-,N/A,,Overcast,0,2013-05-17 11:55:00
6:58 AM,64.9,64.4,98,30.08,10.0,Calm,Calm,-,N/A,,Overcast,0,2013-05-17 11:58:00
7:13 AM,66.2,64.4,94,30.09,6.0,SSE,3.5,-,N/A,,Overcast,160,2013-05-17 12:13:00
7:23 AM,66.2,66.2,100,30.09,4.0,SSE,4.6,-,N/A,,Overcast,150,2013-05-17 12:23:00
7:33 AM,66.2,66.2,100,30.09,1.5,SSE,3.5,-,N/A,,Overcast,150,2013-05-17 12:33:00
7:38 AM,66.2,66.2,100,30.09,0.5,SSE,4.6,-,N/A,Fog,Fog,150,2013-05-17 12:38:00
7:43 AM,66.2,66.2,100,30.09,0.2,SSE,4.6,-,N/A,Fog,Fog,150,2013-05-17 12:43:00
7:48 AM,66.2,66.2,100,30.09,0.5,SSE,4.6,-,N/A,Fog,Fog,160,2013-05-17 12:48:00
7:53 AM,66.2,66.2,100,30.09,0.8,South,4.6,-,N/A,,Overcast,180,2013-05-17 12:53:00
7:58 AM,66.2,66.2,100,30.10,1.2,South,4.6,-,N/A,,Overcast,190,2013-05-17 12:58:00
8:08 AM,68.0,66.2,94,30.10,1.8,Variable,4.6,-,N/A,,Overcast,0,2013-05-17 13:08:00
8:13 AM,68.0,66.2,94,30.10,2.5,SSW,4.6,-,N/A,,Overcast,200,2013-05-17 13:13:00
8:18 AM,68.0,66.2,94,30.10,4.0,SSW,4.6,-,N/A,,Overcast,200,2013-05-17 13:18:00
8:38 AM,69.8,66.2,88,30.10,10.0,South,4.6,-,N/A,,Overcast,170,2013-05-17 13:38:00
8:43 AM,69.8,66.2,88,30.11,10.0,South,5.8,-,N/A,,Overcast,170,2013-05-17 13:43:00
8:48 AM,69.8,66.2,88,30.11,10.0,SSE,3.5,-,N/A,,Overcast,160,2013-05-17 13:48:00
8:53 AM,71.6,66.2,83,30.11,10.0,South,3.5,-,N/A,,Overcast,180,2013-05-17 13:53:00
8:58 AM,72.0,66.6,83,30.11,10.0,South,4.6,-,N/A,,Overcast,190,2013-05-17 13:58:00
9:08 AM,73.4,66.2,78,30.11,10.0,SSW,4.6,-,N/A,,Mostly Cloudy,210,2013-05-17 14:08:00
9:33 AM,75.2,66.2,73,30.11,10.0,Variable,4.6,-,N/A,,Mostly Cloudy,0,2013-05-17 14:33:00
9:43 AM,75.2,66.2,73,30.11,10.0,SW,8.1,-,N/A,,Mostly Cloudy,220,2013-05-17 14:43:00
9:58 AM,77.0,66.2,69,30.11,10.0,South,8.1,-,N/A,,Mostly Cloudy,170,2013-05-17 14:58:00
10:58 AM,78.6,63.7,60,30.11,10.0,SSE,11.5,-,N/A,,Mostly Cloudy,160,2013-05-17 15:58:00
11:58 AM,81.0,62.2,53,30.10,10.0,South,9.2,-,N/A,,Mostly Cloudy,180,2013-05-17 16:58:00
12:58 PM,82.8,62.2,50,30.09,10.0,South,11.5,-,N/A,,Mostly Cloudy,190,2013-05-17 17:58:00
1:58 PM,84.7,61.0,45,30.07,10.0,SW,4.6,-,N/A,,Partly Cloudy,230,2013-05-17 18:58:00
2:58 PM,84.9,61.5,45,30.06,10.0,South,5.8,-,N/A,,Partly Cloudy,170,2013-05-17 19:58:00
3:58 PM,86.4,62.6,45,30.04,10.0,SSW,10.4,-,N/A,,Partly Cloudy,200,2013-05-17 20:58:00
4:58 PM,86.4,61.5,43,30.03,10.0,SSW,10.4,-,N/A,,Partly Cloudy,200,2013-05-17 21:58:00
5:58 PM,84.7,62.2,47,30.02,10.0,South,10.4,-,N/A,,Partly Cloudy,180,2013-05-17 22:58:00
6:58 PM,80.8,63.1,55,30.02,10.0,South,8.1,-,N/A,,Clear,190,2013-05-17 23:58:00
7:58 PM,76.8,62.4,61,30.03,10.0,South,8.1,-,N/A,,Clear,190,2013-05-18 00:58:00
8:58 PM,73.9,63.7,70,30.05,10.0,SSW,8.1,-,N/A,,Clear,210,2013-05-18 01:58:00
9:58 PM,71.1,64.6,80,30.08,10.0,SSW,8.1,-,N/A,,Clear,210,2013-05-18 02:58:00
10:58 PM,69.4,65.1,86,30.09,10.0,SSW,5.8,-,N/A,,Clear,210,2013-05-18 03:58:00
11:58 PM,67.3,64.9,92,30.06,10.0,SSE,2.3,-,N/A,,Clear,160,2013-05-18 04:58:00